SL-8 DEB, 21175

Orbit data source: Space-Track

SL-8 DEB, 21175 is space debris in LEO originally from a launch on Tue, 12 Feb 1991 UTC launched from the Plesetsk Missile And Space Complex (PKMTR). Debris objects in space refer to the collection of defunct objects orbiting the Earth. Examples of debris include non-operational satellites, rocket bodies, and fragments generated from explosions, collisions, or faulty payload assembly.

Loading next visibility...
Identifier
21175, 1991-009AN
Orbit
LEO
Country
Flag of CISCIS
Related business
Manufacturer
Unknown
Mission
Spacecraft
Bus & Motor
Unknown
Mass
Unknown
Launch date (UTC)
1991-02-12 (35 years ago)
Launch vehicle
Unknown
Launch site
Plesetsk Missile And Space Complex (PKMTR)
Object type
Payload
Rocket body
Debris
Shape & HBR
Unknown shape, 0.2 m
Radar Cross Section
Small (<0.1 m²)

Expand to show TLE details & history
Last TLE update: 11 hours ago

TLE from 11 hours ago
0 SL-8 DEB
1 21175U 91009AN  26071.06087310 -.00000013  00000-0  24945-4 0  9999
2 21175  73.9357 300.1124 0147301 244.6176 238.1080 12.28583556570480
Epoch: 2026-03-12T01:27Z
TLE epoch observation values (Epoch: 2026-03-12T01:27:39.435Z)
Latitude
55.28577°
Longitude
-95.95217°
Altitude
1,627.108 km
Speed
7.035 km/s
True Right ascension
06h 22m 42s
True Declination
55° 08' 32"
Sunlit
Object was in daylight at epoch
Visualization orbit readout
Latitude
Unknown
Longitude
Unknown
Altitude
Unknown
Speed
Unknown
Apparent Right ascension
Unknown
Apparent Declination
Unknown
Sunlit
N/A
Visualization observer readout
Local Sidereal Time
16:40:28
Azimuth
Unknown
Elevation
Unknown
Doppler factor
Unknown
Orbital elements
Apogee altitude
1,670.07 km
Perigee altitude
1,436.41 km
Semi-major axis
7,931.377 km
Eccentricity
0.01473
Inclination
73.9357°
RAAN
300.1124°
Arg. of periapsis
244.6176°
True anomaly
236.68881°
Mean anomaly
238.108°
Eccentric anomaly
237.39702°
Mean motion
3.0727 °/min
Orbital period
117.16 mins
BSTAR
0.000024945
Loading maneuver chart data...
Computing Atmospheric mass density...
Loading historical data...
Loading historical data...
Loading historical data...
Loading historical data...
Loading historical data...
Loading historical data...
Loading historical data...

Documentation

Showing up to 5 results
|